Evanston, WY

3:57 PM MDT on May 26, 2017 (GMT -0600)
Evanston-Uinta County Burns

Weather History for KEVW - February, 2014

Change the Weather History Date:

Thursday, February 20, 2014

  Actual Average Record
Temperature  
Mean Temperature 18 °F 24 °F  
Max Temperature 24 °F 32 °F 41 °F (1999)
Min Temperature 12 °F 15 °F 0 °F (2006)
Degree Days  
Heating Degree Days 47 41  
Month to date heating degree days 767 855  
Since 1 July heating degree days 5347 5684  
Cooling Degree Days 0 0  
Month to date cooling degree days 0 0  
Year to date cooling degree days 0 0  
Moisture  
Dew Point 9 °F    
Average Humidity 68    
Maximum Humidity 80    
Minimum Humidity 55    
Precipitation  
Precipitation T in 0.02 in 0.06 in (2005)
Month to date precipitation T 0.42  
Year to date precipitation 0.03 0.96  
Sea Level Pressure  
Sea Level Pressure 30.19 in    
Wind  
Wind Speed 15 mph (WSW)    
Max Wind Speed 27 mph    
Max Gust Speed 33 mph    
Visibility 10 miles    
Events      
T = Trace of Precipitation, MM = Missing Value Source: NWS Daily Summary

Daily Weather History Graph

Daily Weather History Graph

Search for Another Location

Airport or City:

Trip Planner

Search our weather history database for the weather conditions in past years. The results will help you decide how hot, cold, wet, or windy it might be!

Date:

Astronomy

Feb. 20, 2014 Rise Set
Actual Time 7:11 AM MST 6:04 PM MST
Civil Twilight 6:43 AM MST 6:32 PM MST
Nautical Twilight 6:11 AM MST 7:04 PM MST
Astronomical Twilight 5:39 AM MST 7:36 PM MST
Moon No Moon Rise 9:53 AM MST (2/20)
Length of Visible Light 11h 48m
Length of Day
10h 52m
Waning Gibbous, 70% of the Moon is Illuminated
Feb 20
Waning Gibbous
Feb 22
Last Quarter
Mar 1
New
Mar 8
First Quarter
Mar 16
Full

Hourly Weather History & Observations

Time (MST) Temp. Windchill Dew Point Humidity Pressure Visibility Wind Dir Wind Speed Gust Speed Precip Events Conditions
12:04 AM 15.1 °F -1.1 °F 9.0 °F 77% 29.97 in 10.0 mi West 17.3 mph - 0.00 in   Scattered Clouds
12:53 AM 12.9 °F -1.6 °F 5.0 °F 71% 30.11 in 10.0 mi WSW 12.7 mph - 0.00 in   Clear
1:53 AM 12.0 °F -4.5 °F 5.0 °F 73% 30.13 in 10.0 mi West 16.1 mph - N/A   Clear
2:53 AM 12.9 °F -3.4 °F 5.0 °F 71% 30.14 in 10.0 mi West 16.1 mph - N/A   Clear
3:53 AM 14.0 °F 1.2 °F 6.1 °F 71% 30.16 in 10.0 mi West 10.4 mph - N/A   Overcast
4:53 AM 14.0 °F 1.2 °F 7.0 °F 74% 30.19 in 10.0 mi WSW 10.4 mph - N/A   Overcast
5:31 AM 15.1 °F 6.4 °F 8.1 °F 74% 30.07 in 9.0 mi WSW 5.8 mph - 0.00 in   Overcast
5:53 AM 15.1 °F - 8.1 °F 74% 30.22 in 10.0 mi Calm Calm - 0.00 in   Overcast
6:31 AM 16.0 °F 2.3 °F 8.1 °F 71% 30.09 in 10.0 mi WNW 12.7 mph - N/A   Overcast
6:53 AM 16.0 °F 0.6 °F 8.1 °F 71% 30.24 in 10.0 mi West 16.1 mph - N/A   Overcast
7:53 AM 16.0 °F 8.8 °F 9.0 °F 74% 30.26 in 10.0 mi SSW 4.6 mph - 0.00 in   Overcast
8:53 AM 17.1 °F 4.3 °F 9.0 °F 71% 30.29 in 10.0 mi SW 11.5 mph - N/A   Overcast
9:53 AM 18.0 °F 6.9 °F 9.0 °F 68% 30.28 in 10.0 mi SW 9.2 mph - N/A   Overcast
10:53 AM 19.9 °F 5.7 °F 9.0 °F 62% 30.29 in 10.0 mi SW 16.1 mph - N/A   Overcast
11:53 AM 21.0 °F 6.6 °F 12.0 °F 68% 30.30 in 10.0 mi SW 17.3 mph - N/A   Overcast
12:53 PM 21.0 °F 6.6 °F 10.9 °F 65% 30.30 in 10.0 mi SW 17.3 mph - 0.00 in   Overcast
1:53 PM 23.0 °F 7.6 °F 10.0 °F 58% 30.25 in 10.0 mi WSW 21.9 mph 26.5 mph N/A   Mostly Cloudy
2:53 PM 23.0 °F 8.7 °F 10.9 °F 60% 30.24 in 10.0 mi WSW 18.4 mph - N/A   Partly Cloudy
3:53 PM 24.1 °F 8.3 °F 12.0 °F 60% 30.20 in 10.0 mi WSW 24.2 mph - N/A   Clear
4:53 PM 23.0 °F 8.3 °F 10.9 °F 60% 30.20 in 10.0 mi WSW 19.6 mph - N/A   Clear
5:53 PM 21.0 °F 6.6 °F 8.1 °F 57% 30.20 in 10.0 mi WSW 17.3 mph - N/A   Clear
6:53 PM 19.9 °F 4.3 °F 9.0 °F 62% 30.19 in 10.0 mi WSW 19.6 mph - N/A   Clear
7:53 PM 21.9 °F 8.2 °F 10.0 °F 60% 30.19 in 10.0 mi SW 16.1 mph - N/A   Clear
8:53 PM 21.9 °F 8.7 °F 10.9 °F 63% 30.16 in 10.0 mi SSW 15.0 mph - N/A   Partly Cloudy
9:53 PM 21.9 °F 6.9 °F 10.9 °F 63% 30.14 in 10.0 mi SW 19.6 mph 24.2 mph N/A   Clear
10:53 PM 23.0 °F 6.6 °F 12.0 °F 63% 30.11 in 10.0 mi SW 25.3 mph - N/A   Clear
11:53 PM 23.0 °F 7.2 °F 12.9 °F 65% 30.12 in 10.0 mi SW 23.0 mph - N/A   Mostly Cloudy